Terug naar catalogus

ONEWEB-0279

ActiefCommunicatiePO
NORAD 48997·PAYLOAD·🇬🇧 United Kingdom

Gelanceerd Jul 1, 2021 vanaf Vostochny Cosmodrome

Loading…

Volgende Passages (komende 24 uur)

TLE

VersSource: CelesTrak SupGP

Epoch: Sep 14, 2026, 13:51 UTC

1 48997C 21060AG  26257.57757361 -.00000499  00000+0 -13067-2 0  2578
2 48997  87.9148 211.0237 0002258  76.0071 319.1267 13.16590601    12

Volg ONEWEB-0279 in realtime met AllMySat

Download on the App Store